sat.trackr.live / text

‹ back to catalog

ONEWEB-0419

NORAD 50494 · 2021-132AB

PAYLOAD ACTIVE UNKNOWN

§ Identity

Operator
Country
UK
Launch date
2021-12-27
Launch site
TYMSC
Launch vehicle
Mass (kg)
RCS (m²)

Purposes: comms

External: N2YO · Heavens-Above · Gunter

§ Orbital elements

Epoch: 2026-09-19T22:03:42.573600Z

Period
109.33 min
Inclination
87.9167°
Eccentricity
0.0001826
Mean motion
13.17085772 rev/d
Perigee alt
1,194.5 km
Apogee alt
1,197.3 km
Semi-major
7,574.0 km
B*
1.0298e-4
RAAN
316.6460°
Arg perigee
105.8929°
Mean anomaly
254.2403°
Rev number
23,406

§ Raw data

ONEWEB-04191 50494U 21132AB  26262.91924275  .00000053  00000+0  10298-3 0  99982 50494  87.9167 316.6460 0001826 105.8929 254.2403 13.17085772234065

JSON: /api/v1/satellites/50494 · /tle

For live sub-satellite position, see the globe view (requires WebGL).

§ Visibility from observer

Set your observer location to see the next 7 days of passes ≥ 10°. The values pass through the URL so the page stays shareable.

No JS? Fill the form by hand. The geolocation button needs JavaScript.